FW4685 Weather Reports


Display with metric or nautical units.
time (UTC)temp
F
wind
direction
speed
MPH
gust
MPH
rain 1hr
in
rain 24hr
in
rain mn
in
humidity
%
barometer
mb
20260902024016 60 344 0.0 0.0 0.00 0.00 0.00 84 1021.3
20260902023027 60 2 0.0 0.0 0.00 0.00 0.00 84 1021.2
20260902022019 60 7 0.0 0.0 0.00 0.00 0.00 84 1021.2
20260902021030 60 355 0.0 0.0 0.00 0.00 0.00 84 1021.4
20260902020047 60 2 0.0 0.0 0.00 0.00 0.00 84 1021.3
20260902015019 60 27 0.0 0.0 0.00 0.00 0.00 84 1021.5
20260902014051 60 36 0.0 0.0 0.00 0.00 0.00 83 1021.6
20260902013026 60 50 0.0 0.0 0.00 0.00 0.00 83 1021.7
20260902012018 60 58 0.0 0.0 0.00 0.00 0.00 82 1021.8
20260902011110 60 83 0.0 0.0 0.00 0.00 0.00 82 1021.8
20260902010026 61 79 0.0 0.0 0.00 0.00 0.00 82 1021.9
20260902005019 61 37 0.0 0.0 0.00 0.00 0.00 81 1021.9
20260902004026 61 98 0.0 0.0 0.00 0.00 0.00 81 1021.9
20260902003159 61 132 0.0 0.0 0.00 0.00 0.00 81 1021.9
20260902002030 61 126 0.0 0.0 0.00 0.00 0.00 81 1021.8
20260902001027 61 139 0.0 0.0 0.00 0.00 0.00 81 1021.9
20260902000018 61 181 0.0 0.0 0.00 0.00 0.00 81 1021.8
20260901235029 61 98 0.0 0.0 0.00 0.00 0.00 81 1021.9
20260901234026 61 112 0.0 0.0 0.00 0.00 0.00 81 1022.0
20260901233017 61 56 0.0 0.0 0.00 0.00 0.00 81 1022.1
20260901232030 61 43 0.0 0.0 0.00 0.00 0.00 80 1022.1
20260901231026 61 55 0.0 0.0 0.00 0.00 0.00 80 1021.9
20260901230018 61 81 0.0 0.0 0.00 0.00 0.00 79 1021.8
20260901225030 62 115 0.0 0.0 0.00 0.00 0.00 78 1022.0
20260901224026 62 326 0.0 0.0 0.00 0.00 0.00 78 1022.0
20260901223018 62 85 0.0 0.0 0.00 0.00 0.00 78 1022.1
20260901222031 62 63 0.0 0.0 0.00 0.00 0.00 78 1022.2
20260901221025 62 47 0.0 0.0 0.00 0.00 0.00 77 1022.1
20260901220039 62 51 0.0 0.0 0.00 0.00 0.00 77 1022.2
20260901215030 62 40 0.0 0.0 0.00 0.00 0.00 77 1022.0
20260901214026 62 101 0.0 0.0 0.00 0.00 0.00 76 1022.1
20260901213039 62 242 0.0 0.0 0.00 0.00 0.00 76 1022.1
20260901212030 62 71 0.0 0.0 0.00 0.00 0.00 76 1022.2
20260901211028 63 66 0.0 0.0 0.00 0.00 0.00 75 1022.1
20260901210019 63 78 0.0 0.0 0.00 0.00 0.00 74 1022.1
20260901205030 64 43 0.0 0.0 0.00 0.00 0.00 74 1022.0
20260901204025 64 93 0.0 0.0 0.00 0.00 0.00 73 1022.1
20260901203052 64 61 0.0 0.0 0.00 0.00 0.00 72 1022.0
20260901202046 65 266 0.0 2.0 0.00 0.00 0.00 71 1022.0
20260901201027 65 330 0.0 2.0 0.00 0.00 0.00 71 1021.9
20260901200018 65 37 0.0 2.0 0.00 0.00 0.00 70 1021.8
20260901195030 66 287 0.0 5.0 0.00 0.00 0.00 69 1021.8
20260901194025 66 346 0.0 2.0 0.00 0.00 0.00 68 1021.6
20260901193019 67 167 0.0 5.0 0.00 0.00 0.00 67 1021.6
20260901192031 67 279 0.0 5.0 0.00 0.00 0.00 67 1021.7
20260901191026 67 195 0.0 2.0 0.00 0.00 0.00 67 1021.6
20260901190018 67 280 0.0 5.0 0.00 0.00 0.00 67 1021.6
20260901185051 67 213 0.0 2.0 0.00 0.00 0.00 67 1021.4
20260901184025 68 240 0.0 2.0 0.00 0.00 0.00 66 1021.3
20260901183018 68 156 0.0 5.0 0.00 0.00 0.00 65 1021.3
20260901182028 69 78 0.0 5.0 0.00 0.00 0.00 64 1021.5
20260901181018 70 249 1.0 5.0 0.00 0.00 0.00 63 1021.4
20260901175531 71 201 1.0 7.0 0.00 0.00 0.00 61 1021.3
20260901174525 71 219 1.0 5.0 0.00 0.00 0.00 59 1021.2
20260901173516 72 200 0.0 5.0 0.00 0.00 0.00 57 1021.2
20260901172525 72 173 0.0 2.0 0.00 0.00 0.00 56 1021.3
20260901171526 73 234 0.0 2.0 0.00 0.00 0.00 52 1021.1
20260901170538 74 102 0.0 2.0 0.00 0.00 0.00 50 1021.2
20260901165526 75 46 0.0 5.0 0.00 0.00 0.00 47 1021.1
20260901164518 75 332 1.0 7.0 0.00 0.00 0.00 45 1021.0
20260901163526 75 323 1.0 7.0 0.00 0.00 0.00 41 1021.0
20260901162532 74 355 1.0 7.0 0.00 0.00 0.00 43 1021.0
20260901161525 74 329 1.0 5.0 0.00 0.00 0.00 44 1021.0
20260901160552 75 282 1.0 7.0 0.00 0.00 0.00 43 1021.0
20260901155517 76 327 0.0 5.0 0.00 0.00 0.00 43 1021.1
20260901154530 76 148 0.0 2.0 0.00 0.00 0.00 42 1021.2
20260901153524 77 21 0.0 0.0 0.00 0.00 0.00 42 1021.2
20260901152518 77 36 0.0 2.0 0.00 0.00 0.00 40 1021.5
20260901151531 78 314 1.0 10.0 0.00 0.00 0.00 40 1021.3
20260901150525 78 344 1.0 5.0 0.00 0.00 0.00 42 1021.3
20260901145519 77 228 1.0 5.0 0.00 0.00 0.00 38 1021.4
20260901144528 76 348 1.0 12.0 0.00 0.00 0.00 40 1021.3
20260901143525 76 323 1.0 7.0 0.00 0.00 0.00 44 1021.4
20260901142518 77 343 1.0 7.0 0.00 0.00 0.00 42 1021.6
20260901141545 78 333 1.0 10.0 0.00 0.00 0.00 42 1021.5
20260901140519 79 334 2.0 10.0 0.00 0.00 0.00 41 1021.5
20260901135530 79 306 2.0 7.0 0.00 0.00 0.00 39 1021.6
20260901134524 79 119 1.0 5.0 0.00 0.00 0.00 40 1021.6
20260901133519 78 175 1.0 5.0 0.00 0.00 0.00 40 1021.7
20260901132531 78 125 1.0 7.0 0.00 0.00 0.00 41 1021.8
20260901131520 78 225 1.0 5.0 0.00 0.00 0.00 41 1021.8
20260901130530 77 96 1.0 7.0 0.00 0.00 0.00 41 1022.0
20260901125524 76 346 1.0 7.0 0.00 0.00 0.00 42 1022.0
20260901124539 75 206 1.0 7.0 0.00 0.00 0.00 45 1022.1
20260901123528 75 246 1.0 10.0 0.00 0.00 0.00 46 1022.1
20260901122525 74 268 1.0 5.0 0.00 0.00 0.00 49 1022.2
20260901121532 74 258 1.0 10.0 0.00 0.00 0.00 50 1022.2
20260901120525 74 200 0.0 5.0 0.00 0.00 0.00 51 1022.2
20260901115540 74 76 0.0 5.0 0.00 0.00 0.00 50 1022.3
20260901114525 73 233 1.0 7.0 0.00 0.00 0.00 51 1022.4
20260901113518 73 161 1.0 5.0 0.00 0.00 0.00 51 1022.3
20260901112529 74 211 1.0 7.0 0.00 0.00 0.00 52 1022.3
20260901111516 74 219 1.0 5.0 0.00 0.00 0.00 50 1022.4
20260901110530 74 231 1.0 5.0 0.00 0.00 0.00 48 1022.4
20260901105520 74 198 1.0 10.0 0.00 0.00 0.00 47 1022.5
20260901104532 73 180 1.0 7.0 0.00 0.00 0.00 49 1022.5
20260901103532 73 118 0.0 2.0 0.00 0.00 0.00 48 1022.5
20260901102519 73 18 1.0 5.0 0.00 0.00 0.00 48 1022.6
20260901101529 72 145 1.0 5.0 0.00 0.00 0.00 47 1022.8
20260901100525 71 313 1.0 7.0 0.00 0.00 0.00 49 1022.9
20260901095516 70 99 1.0 5.0 0.00 0.00 0.00 50 1022.9
20260901094529 69 344 0.0 5.0 0.00 0.00 0.00 51 1023.1
20260901093544 68 212 0.0 2.0 0.00 0.00 0.00 58 1023.1
20260901092517 67 143 0.0 2.0 0.00 0.00 0.00 59 1023.1
20260901091530 66 158 0.0 5.0 0.00 0.00 0.00 61 1023.1
20260901090526 65 152 0.0 0.0 0.00 0.00 0.00 63 1023.0
20260901085531 64 10 0.0 5.0 0.00 0.00 0.00 64 1022.9
20260901084545 64 212 0.0 2.0 0.00 0.00 0.00 66 1022.9
20260901083531 63 173 0.0 2.0 0.00 0.00 0.00 69 1022.9
20260901082524 62 344 0.0 2.0 0.00 0.00 0.00 72 1022.8
20260901081519 62 244 0.0 2.0 0.00 0.00 0.00 74 1022.8
20260901080528 61 82 0.0 2.0 0.00 0.00 0.00 75 1022.9
20260901075517 59 90 0.0 0.0 0.00 0.00 0.00 75 1022.8
20260901074528 58 163 0.0 0.0 0.00 0.00 0.00 79 1022.7
20260901073526 56 65 0.0 0.0 0.00 0.00 0.00 83 1022.6
20260901072529 55 134 0.0 0.0 0.00 0.00 0.00 88 1022.6
20260901071604 54 229 0.0 0.0 0.00 0.00 0.00 90 1022.6
20260901070545 54 123 0.0 0.0 0.00 0.00 0.00 93 1022.5
20260901065521 53 156 0.0 0.0 0.00 0.00 0.00 94 1022.5
20260901064119 53 249 0.0 0.0 0.00 0.00 0.00 94 1022.5
20260901063027 52 64 0.0 0.0 0.00 0.00 0.00 94 1022.4
20260901062023 52 112 0.0 0.0 0.00 0.00 0.00 95 1022.4
20260901061016 52 133 0.0 0.0 0.00 0.00 0.00 95 1022.3
20260901060018 51 65 0.0 0.0 0.00 0.00 0.00 95 1022.2
20260901055029 51 72 0.0 0.0 0.00 0.00 0.00 95 1022.1
20260901054024 51 72 0.0 0.0 0.00 0.00 0.00 95 1022.1
20260901053016 51 71 0.0 0.0 0.00 0.00 0.00 94 1022.1
20260901052028 50 82 0.0 0.0 0.00 0.00 0.00 94 1022.0
20260901051023 50 66 0.0 0.0 0.00 0.00 0.00 94 1021.8
20260901050029 50 79 0.0 0.0 0.00 0.00 0.00 94 1021.8
20260901045036 50 67 0.0 0.0 0.00 0.00 0.00 93 1021.8
20260901044018 50 65 0.0 0.0 0.00 0.00 0.00 93 1021.8
20260901043030 50 69 0.0 0.0 0.00 0.00 0.00 93 1021.6
20260901042023 50 79 0.0 0.0 0.00 0.00 0.00 93 1021.7
20260901041016 51 65 0.0 0.0 0.00 0.00 0.00 92 1021.5
20260901040027 51 65 0.0 0.0 0.00 0.00 0.00 92 1021.6
20260901035025 51 68 0.0 0.0 0.00 0.00 0.00 92 1021.4
20260901034027 51 71 0.0 0.0 0.00 0.00 0.00 91 1021.6
20260901033019 52 104 0.0 0.0 0.00 0.00 0.00 91 1021.4
20260901032112 52 84 0.0 0.0 0.00 0.00 0.00 90 1021.4
20260901031023 52 95 0.0 0.0 0.00 0.00 0.00 90 1021.4
20260901030020 53 93 0.0 0.0 0.00 0.00 0.00 89 1021.3
20260901025017 53 102 0.0 0.0 0.00 0.00 0.00 89 1021.3